Weather History for San Diego, CA

Change the Weather History Date:

Tuesday, November 13, 2012

  Actual Average Record
Temperature  
Mean Temperature 62 °F 62 °F  
Max Temperature 76 °F 70 °F 89 °F (1949)
Min Temperature 48 °F 54 °F 40 °F (1880)
Degree Days  
Heating Degree Days 3 4  
Month to date heating degree days 35 34  
Since 1 July heating degree days 39 55  
Cooling Degree Days 0 0  
Month to date cooling degree days 15 11  
Year to date cooling degree days 898 718  
Growing Degree Days 12 (Base 50)    
Moisture  
Dew Point 34 °F    
Average Humidity 28    
Maximum Humidity 48    
Minimum Humidity 8    
Precipitation  
Precipitation 0.00 in 0.03 in 1.11 in (1950)
Month to date precipitation 0.18 0.35  
Year to date precipitation 4.34 8.15  
Since 1 July precipitation 0.88 1.12  
Snow  
Snow 0.00 in - - ()
Month to date snowfall 0.0  
Year to date snowfall 0.0  
Since 1 July snowfall 0.0  
Snow Depth 0.00 in    
Sea Level Pressure  
Sea Level Pressure 30.06 in    
Wind  
Wind Speed 4 mph (NNW)    
Max Wind Speed 12 mph    
Max Gust Speed 15 mph    
Visibility 10 miles    
Events      
T = Trace of Precipitation, MM = Missing Value Source: NWS Daily Summary

Daily Weather History Graph

Daily Weather History Graph

Search for Another Location

Airport:

Trip Planner

Search our weather history database for the weather conditions in past years. The results will help you decide how hot, cold, wet, or windy it might be!

Date:

Astronomy

Nov. 13, 2012 Rise Set
Actual Time 6:17 AM PST 4:48 PM PST
Civil Twilight 5:51 AM PST 5:14 PM PST
Nautical Twilight 5:21 AM PST 5:44 PM PST
Astronomical Twilight 4:52 AM PST 6:13 PM PST
Moon 6:00 AM PST (11/13) 4:47 PM PST (11/13)
Length of Visible Light 11h 22m
Length of Day
10h 30m
Waning Crescent, 0% of the Moon is Illuminated
Nov 13
Waning Crescent
Nov 13
New
Nov 20
First Quarter
Nov 28
Full
Dec 6
Last Quarter

Hourly Weather History & Observations

Time (PST) Temp. Dew Point Humidity Pressure Visibility Wind Dir Wind Speed Gust Speed Precip Events Conditions
12:51 AM 52.0 °F 32.0 °F 47% 30.14 in 10.0 mi NNW 3.5 mph - N/A   Clear
1:51 AM 52.0 °F 30.9 °F 45% 30.12 in 10.0 mi North 3.5 mph - N/A   Clear
2:51 AM 51.1 °F 30.0 °F 44% 30.10 in 10.0 mi Calm Calm - N/A   Clear
3:51 AM 51.1 °F 28.0 °F 41% 30.09 in 10.0 mi NNW 4.6 mph - N/A   Clear
4:51 AM 48.9 °F 28.9 °F 46% 30.09 in 10.0 mi Calm Calm - N/A   Clear
5:51 AM 50.0 °F 28.0 °F 43% 30.09 in 10.0 mi Calm Calm - N/A   Partly Cloudy
6:51 AM 50.0 °F 28.0 °F 43% 30.10 in 10.0 mi North 5.8 mph - N/A   Partly Cloudy
7:51 AM 57.0 °F 27.0 °F 32% 30.11 in 10.0 mi Calm Calm - N/A   Partly Cloudy
8:51 AM 61.0 °F 27.0 °F 27% 30.10 in 10.0 mi Calm Calm - N/A   Partly Cloudy
9:51 AM 68.0 °F 27.0 °F 21% 30.09 in 10.0 mi Calm Calm - N/A   Partly Cloudy
10:51 AM 71.1 °F 35.1 °F 27% 30.08 in 10.0 mi NW 6.9 mph - N/A   Partly Cloudy
11:51 AM 70.0 °F 30.9 °F 24% 30.05 in 10.0 mi NW 9.2 mph - N/A   Partly Cloudy
12:51 PM 72.0 °F 18.0 °F 13% 30.01 in 10.0 mi NW 8.1 mph - N/A   Partly Cloudy
1:51 PM 75.0 °F 10.9 °F 9% 29.99 in 10.0 mi WNW 11.5 mph - N/A   Partly Cloudy
2:51 PM 73.9 °F 30.0 °F 20% 29.99 in 10.0 mi NNW 9.2 mph - N/A   Partly Cloudy
3:51 PM 75.0 °F 12.9 °F 9% 29.99 in 10.0 mi NW 6.9 mph - N/A   Partly Cloudy
4:51 PM 64.9 °F 48.0 °F 54% 30.01 in 10.0 mi SSE 9.2 mph - N/A   Partly Cloudy
5:51 PM 62.1 °F 53.1 °F 72% 30.03 in 10.0 mi South 6.9 mph - N/A   Clear
6:51 PM 61.0 °F 55.0 °F 81% 30.03 in 10.0 mi SSE 5.8 mph - N/A   Clear
7:51 PM 61.0 °F 55.0 °F 81% 30.04 in 10.0 mi South 3.5 mph - N/A   Clear
8:51 PM 60.1 °F 53.1 °F 78% 30.05 in 10.0 mi Calm Calm - N/A   Clear
9:51 PM 57.9 °F 50.0 °F 75% 30.05 in 10.0 mi NNE 3.5 mph - N/A   Clear
10:51 PM 57.0 °F 48.9 °F 74% 30.06 in 10.0 mi Calm Calm - N/A   Clear
11:51 PM 55.9 °F 48.9 °F 77% 30.06 in 10.0 mi Calm Calm - N/A   Partly Cloudy